User: anonymous   Login
Location: Goheenville
(40.9070°N, 79.3720°W)
Time: 23:23:25
(UTC-05:00)
Language:

Cosmos 1727 Rocket - Orbit

View from above orbital plane
View from above orbital plane
View from above satellite
View from above satellite

Ground track
Ground track

The orbit data is extracted from the following two-line orbital elements,

1 16511U 86008B   14354.88847304  .00000017  00000-0  22436-5 0  6431
2 16511 082.9436 174.2324 0023061 303.3115 165.4322 13.75776683451241
Epoch (UTC): 20 December 2014 21:19:24
Eccentricity: 0.0023061
inclination: 82.9436°
perigee height: 962 km
apogee height: 996 km
right ascension of ascending node: 174.2324°
argument of perigee: 303.3115°
revolutions per day: 13.75776683
mean anomaly at epoch: 165.4322°
orbit number at epoch: 45124

The dashed part of the orbit path shows where the satellite is in the earth's shadow,  

DLR